Location: Cherryland
(37.6794°N, 122.1033°W)
Time: 13:30:53
(UTC+00:00)

Cosmos 192 - Pass Details

Date: 14 December 2025
Orbit: 696 x 707 km, 74.0° (Epoch: 17 January)

Event Time Altitude Azimuth Distance (km) Brightness Sun altitude
Exits shadow 14:18:16 - 338° (NNW) 2,684 6.9 -11.2°
Reaches altitude 10° 14:19:34 10° 336° (NNW) 2,175 6.4 -10.9°
Maximum altitude 14:24:25 67° 255° (WSW) 762 4.3 -10.0°
Drops below altitude 10° 14:29:14 10° 173° (S) 2,153 7.2 -9.1°
Sets 14:31:33 0° 171° (S) 3,064 8.1 -8.7°
